McCook, NE

2:55 AM CST on December 04, 2016 (GMT -0600)
McCook Municipal

Weather History for KMCK - January, 2012

Change the Weather History Date:

Saturday, January 14, 2012

  Actual Average Record
Temperature  
Mean Temperature 36 °F 27 °F  
Max Temperature 51 °F 41 °F 70 °F (2006)
Min Temperature 20 °F 14 °F -6 °F (1982)
Degree Days  
Heating Degree Days 30    
Moisture  
Dew Point 13 °F    
Average Humidity 45    
Maximum Humidity 68    
Minimum Humidity 19    
Precipitation  
Precipitation 0.00 in 0.01 in 1.25 in (1960)
Month to date precipitation T 0.24  
Year to date precipitation T 0.24  
Sea Level Pressure  
Sea Level Pressure 30.15 in    
Wind  
Wind Speed 10 mph (WSW)    
Max Wind Speed 13 mph    
Max Gust Speed -    
Visibility 10 miles    
Events      
T = Trace of Precipitation, MM = Missing Value Source: NWS Daily Summary

Daily Weather History Graph

Daily Weather History Graph

Search for Another Location

Airport or City:

Trip Planner

Search our weather history database for the weather conditions in past years. The results will help you decide how hot, cold, wet, or windy it might be!

Date:

Astronomy

Jan. 14, 2012 Rise Set
Actual Time 8:03 AM CST 5:39 PM CST
Civil Twilight 7:33 AM CST 6:09 PM CST
Nautical Twilight 6:59 AM CST 6:42 PM CST
Astronomical Twilight 6:27 AM CST 7:15 PM CST
Moon No Moon Rise 10:49 AM CST (1/14)
Length of Visible Light 10h 35m
Length of Day
9h 36m
Waning Gibbous, 68% of the Moon is Illuminated
Jan 14
Waning Gibbous
Jan 16
Last Quarter
Jan 23
New
Jan 30
First Quarter
Feb 7
Full

Hourly Weather History & Observations

Time (CST) Temp. Windchill Dew Point Humidity Pressure Visibility Wind Dir Wind Speed Gust Speed Precip Events Conditions
12:53 AM 34.0 °F 25.5 °F 15.1 °F 46% 30.07 in 10.0 mi WNW 11.5 mph - N/A   Clear
1:53 AM 34.0 °F 25.5 °F 14.0 °F 44% 30.09 in 10.0 mi WNW 11.5 mph - N/A   Clear
2:53 AM 30.9 °F 21.7 °F 12.9 °F 47% 30.13 in 10.0 mi WNW 11.5 mph - N/A   Clear
3:53 AM 28.9 °F 22.8 °F 12.0 °F 49% 30.17 in 10.0 mi West 5.8 mph - N/A   Clear
4:53 AM 26.1 °F 16.2 °F 12.9 °F 58% 30.19 in 10.0 mi West 10.4 mph - N/A   Clear
5:53 AM 25.0 °F 13.6 °F 12.9 °F 60% 30.21 in 10.0 mi West 12.7 mph - N/A   Clear
6:53 AM 24.1 °F 14.4 °F 12.9 °F 62% 30.25 in 10.0 mi WNW 9.2 mph - N/A   Clear
7:53 AM 21.9 °F 13.4 °F 12.9 °F 68% 30.27 in 10.0 mi NW 6.9 mph - N/A   Clear
8:53 AM 24.1 °F 18.2 °F 14.0 °F 65% 30.27 in 10.0 mi West 4.6 mph - N/A   Clear
9:53 AM 28.9 °F 20.4 °F 14.0 °F 54% 30.28 in 10.0 mi West 9.2 mph - N/A   Clear
10:53 AM 34.0 °F 26.6 °F 15.1 °F 46% 30.29 in 10.0 mi WSW 9.2 mph - N/A   Clear
11:53 AM 37.9 °F 32.1 °F 14.0 °F 38% 30.26 in 10.0 mi WSW 8.1 mph - N/A   Clear
12:53 PM 43.0 °F 37.7 °F 12.0 °F 28% 30.22 in 10.0 mi WSW 9.2 mph - N/A   Clear
1:53 PM 46.0 °F 41.0 °F 10.0 °F 23% 30.18 in 10.0 mi SW 10.4 mph - N/A   Clear
2:53 PM 48.2 °F - 10.4 °F 22% 30.10 in 10.0 mi SSW 9.2 mph - N/A   Clear
3:53 PM 50.0 °F - 9.0 °F 19% 30.11 in 10.0 mi SSW 11.5 mph - N/A   Clear
4:53 PM 48.9 °F - 10.9 °F 22% 30.11 in 10.0 mi South 11.5 mph - N/A   Clear
5:53 PM 39.9 °F 33.9 °F 10.9 °F 31% 30.12 in 10.0 mi South 9.2 mph - N/A   Clear
6:53 PM 37.0 °F 30.4 °F 12.0 °F 36% 30.11 in 10.0 mi South 9.2 mph - N/A   Clear
7:53 PM 36.0 °F 29.0 °F 14.0 °F 41% 30.10 in 10.0 mi South 9.2 mph - N/A   Clear
8:53 PM 35.1 °F 27.4 °F 16.0 °F 46% 30.07 in 10.0 mi SSW 10.4 mph - N/A   Clear
9:53 PM 33.1 °F 26.9 °F 17.1 °F 52% 30.05 in 10.0 mi SSW 6.9 mph - N/A   Clear
10:53 PM 32.0 °F 24.8 °F 19.0 °F 59% 30.02 in 10.0 mi SSW 8.1 mph - N/A   Clear
11:53 PM 34.0 °F 27.2 °F 19.0 °F 54% 29.98 in 10.0 mi SW 8.1 mph - N/A   Clear